TimeMST,TemperatureF,Dew PointF,Humidity,Sea Level PressureIn,VisibilityMPH,Wind Direction,Wind SpeedMPH,Gust SpeedMPH,PrecipitationIn,Events,Conditions,WindDirDegrees,DateUTC
12:53 AM,24.1,18.0,77,30.07,10.0,SW,6.9,-,N/A,,Overcast,220,2013-02-22 07:53:00
1:53 AM,23.0,19.0,85,30.07,10.0,SW,5.8,-,N/A,,Overcast,220,2013-02-22 08:53:00
2:53 AM,21.9,19.0,89,30.08,10.0,WSW,3.5,-,N/A,,Overcast,240,2013-02-22 09:53:00
3:53 AM,21.9,18.0,85,30.07,10.0,SSE,3.5,-,N/A,,Overcast,150,2013-02-22 10:53:00
4:53 AM,21.0,18.0,88,30.08,10.0,South,4.6,-,N/A,,Overcast,180,2013-02-22 11:53:00
5:14 AM,15.8,12.2,86,29.99,1.2,Calm,Calm,-,N/A,,Scattered Clouds,0,2013-02-22 12:14:00
5:21 AM,15.8,12.2,86,29.99,0.8,Calm,Calm,-,N/A,,Mist,0,2013-02-22 12:21:00
5:25 AM,15.8,12.2,86,29.99,0.8,Calm,Calm,-,N/A,,Mist,0,2013-02-22 12:25:00
5:32 AM,12.2,10.4,92,29.99,0.5,North,6.9,-,N/A,Fog,Light Freezing Fog,350,2013-02-22 12:32:00
5:37 AM,12.2,8.6,85,29.99,0.2,NNW,4.6,-,N/A,Fog,Light Freezing Fog,330,2013-02-22 12:37:00
5:45 AM,12.2,10.4,92,30.00,0.2,Calm,Calm,-,N/A,Fog,Light Freezing Fog,0,2013-02-22 12:45:00
5:53 AM,14.0,10.9,88,30.13,0.2,Calm,Calm,-,N/A,Fog,Light Freezing Fog,0,2013-02-22 12:53:00
6:32 AM,17.6,14.0,86,30.01,0.2,SSW,5.8,-,N/A,Fog,Light Freezing Fog,210,2013-02-22 13:32:00
6:53 AM,17.1,15.1,92,30.14,1.0,SSW,5.8,-,N/A,Fog,Shallow Fog,210,2013-02-22 13:53:00
7:08 AM,17.6,14.0,86,30.01,0.2,SW,8.1,-,N/A,Fog,Light Freezing Fog,220,2013-02-22 14:08:00
7:53 AM,16.0,14.0,92,30.18,0.2,Calm,Calm,-,N/A,Fog,Light Freezing Fog,0,2013-02-22 14:53:00
8:14 AM,17.6,14.0,86,30.05,0.8,WNW,3.5,-,N/A,,Overcast,290,2013-02-22 15:14:00
8:22 AM,17.6,15.8,93,30.06,1.2,Calm,Calm,-,N/A,,Overcast,0,2013-02-22 15:22:00
8:29 AM,19.4,15.8,86,30.06,3.0,SW,5.8,-,N/A,,Overcast,220,2013-02-22 15:29:00
8:53 AM,23.0,19.9,88,30.18,6.0,SSW,11.5,-,N/A,,Overcast,210,2013-02-22 15:53:00
9:53 AM,25.0,19.9,81,30.18,10.0,SSW,15.0,-,N/A,,Overcast,200,2013-02-22 16:53:00
10:53 AM,25.0,19.9,81,30.17,10.0,SW,20.7,-,N/A,,Overcast,220,2013-02-22 17:53:00
11:08 AM,24.8,19.4,80,30.05,10.0,SW,19.6,-,N/A,,Overcast,220,2013-02-22 18:08:00
11:53 AM,27.0,21.9,81,30.16,10.0,SW,18.4,-,N/A,,Mostly Cloudy,220,2013-02-22 18:53:00
12:53 PM,28.0,21.9,78,30.14,10.0,SW,18.4,-,N/A,,Scattered Clouds,220,2013-02-22 19:53:00
1:53 PM,28.9,21.9,75,30.11,10.0,SW,17.3,-,N/A,,Scattered Clouds,220,2013-02-22 20:53:00
2:53 PM,32.0,21.9,66,30.09,10.0,SSW,16.1,24.2,N/A,,Scattered Clouds,200,2013-02-22 21:53:00
3:53 PM,32.0,21.9,66,30.08,10.0,SSW,15.0,-,N/A,,Mostly Cloudy,210,2013-02-22 22:53:00
4:12 PM,32.0,23.0,69,29.98,10.0,SSW,12.7,21.9,N/A,,Overcast,200,2013-02-22 23:12:00
4:53 PM,32.0,24.1,73,30.06,10.0,SSW,18.4,24.2,0.00,,Overcast,200,2013-02-22 23:53:00
5:53 PM,30.9,23.0,72,30.08,10.0,SSW,16.1,-,N/A,,Overcast,200,2013-02-23 00:53:00
6:53 PM,30.9,21.9,69,30.07,10.0,SSW,18.4,-,N/A,,Overcast,200,2013-02-23 01:53:00
7:08 PM,30.2,21.2,69,29.96,10.0,SSW,20.7,26.5,N/A,,Overcast,200,2013-02-23 02:08:00
7:53 PM,30.9,21.9,69,30.06,10.0,South,13.8,-,N/A,,Overcast,190,2013-02-23 02:53:00
8:26 PM,32.0,21.2,64,29.93,10.0,South,16.1,-,N/A,,Overcast,190,2013-02-23 03:26:00
8:53 PM,32.0,21.9,66,30.01,10.0,South,15.0,-,N/A,,Overcast,190,2013-02-23 03:53:00
9:21 PM,32.0,21.2,64,29.92,10.0,South,15.0,-,N/A,,Overcast,190,2013-02-23 04:21:00
9:53 PM,32.0,21.9,66,29.99,10.0,South,15.0,-,N/A,,Overcast,190,2013-02-23 04:53:00
10:53 PM,30.9,24.1,76,29.98,9.0,South,19.6,26.5,0.00,,Overcast,190,2013-02-23 05:53:00
11:42 PM,30.2,24.8,80,29.88,1.8,South,19.6,-,0.00,Snow,Light Snow,190,2013-02-23 06:42:00
11:53 PM,30.0,25.0,82,29.96,1.0,South,17.3,-,0.00,Snow,Light Snow,190,2013-02-23 06:53:00